Time,TemperatureF,DewpointF,PressureIn,WindDirection,WindDirectionDegrees,WindSpeedMPH,WindSpeedGustMPH,Humidity,HourlyPrecipIn,Conditions,Clouds,dailyrainin,SoftwareType,DateUTC
2013-11-05 00:13:00,62.0,56.0,-100.00,ESE,110,5.0,9.0,81,0.00,,,0.00,,2013-11-05 06:13:00,
2013-11-05 00:22:00,62.0,56.0,-100.00,ESE,110,5.0,9.0,81,0.00,,,0.00,,2013-11-05 06:22:00,
2013-11-05 00:32:00,62.0,56.0,-100.00,ESE,110,5.0,9.0,81,0.00,,,0.00,,2013-11-05 06:32:00,
2013-11-05 00:42:00,62.0,56.0,-100.00,ESE,110,5.0,9.0,81,0.00,,,0.00,,2013-11-05 06:42:00,
2013-11-05 01:11:00,62.0,56.0,-100.00,ESE,103,4.0,7.0,82,0.00,,,0.00,,2013-11-05 07:11:00,
2013-11-05 01:22:00,62.0,56.0,-100.00,ESE,103,4.0,7.0,82,0.00,,,0.00,,2013-11-05 07:22:00,
2013-11-05 01:32:00,62.0,56.0,-100.00,ESE,103,4.0,7.0,82,0.00,,,0.00,,2013-11-05 07:32:00,
2013-11-05 01:42:00,62.0,56.0,-100.00,ESE,103,4.0,7.0,82,0.00,,,0.00,,2013-11-05 07:42:00,
2013-11-05 02:11:00,61.0,56.0,-100.00,East,93,4.0,7.0,84,0.00,,,0.00,,2013-11-05 08:11:00,
2013-11-05 02:22:00,61.0,56.0,-100.00,East,93,4.0,7.0,84,0.00,,,0.00,,2013-11-05 08:22:00,
2013-11-05 02:32:00,61.0,56.0,-100.00,East,93,4.0,7.0,84,0.00,,,0.00,,2013-11-05 08:32:00,
2013-11-05 02:42:00,61.0,56.0,-100.00,East,93,4.0,7.0,84,0.00,,,0.00,,2013-11-05 08:42:00,
2013-11-05 03:11:00,59.0,56.0,-100.00,NNE,15,1.0,3.0,89,0.00,,,0.00,,2013-11-05 09:11:00,
2013-11-05 03:22:00,59.0,56.0,-100.00,NNE,15,1.0,3.0,89,0.00,,,0.00,,2013-11-05 09:22:00,
2013-11-05 03:33:00,59.0,56.0,-100.00,NNE,15,1.0,3.0,89,0.00,,,0.00,,2013-11-05 09:33:00,
2013-11-05 03:43:00,59.0,56.0,-100.00,NNE,15,1.0,3.0,89,0.00,,,0.00,,2013-11-05 09:43:00,
2013-11-05 04:13:00,58.0,56.0,-100.00,East,81,3.0,6.0,93,0.00,,,0.00,,2013-11-05 10:13:00,
2013-11-05 04:23:00,58.0,56.0,-100.00,East,81,3.0,6.0,93,0.00,,,0.00,,2013-11-05 10:23:00,
2013-11-05 04:33:00,58.0,56.0,-100.00,East,81,3.0,6.0,93,0.00,,,0.00,,2013-11-05 10:33:00,
2013-11-05 04:42:00,58.0,56.0,-100.00,East,81,3.0,6.0,93,0.00,,,0.00,,2013-11-05 10:42:00,
2013-11-05 05:12:00,57.0,55.0,-100.00,North,5,0.0,1.0,93,0.00,,,0.00,,2013-11-05 11:12:00,
2013-11-05 05:22:00,57.0,55.0,-100.00,North,5,0.0,1.0,93,0.00,,,0.00,,2013-11-05 11:22:00,
2013-11-05 05:33:00,57.0,55.0,-100.00,North,5,0.0,1.0,93,0.00,,,0.00,,2013-11-05 11:33:00,
2013-11-05 05:42:00,57.0,55.0,-100.00,North,5,0.0,1.0,93,0.00,,,0.00,,2013-11-05 11:42:00,
2013-11-05 06:12:00,57.0,55.0,-100.00,NE,42,1.0,4.0,93,0.00,,,0.00,,2013-11-05 12:12:00,
2013-11-05 06:22:00,57.0,55.0,-100.00,NE,42,1.0,4.0,93,0.00,,,0.00,,2013-11-05 12:22:00,
2013-11-05 06:32:00,57.0,55.0,-100.00,NE,42,1.0,4.0,93,0.00,,,0.00,,2013-11-05 12:32:00,
2013-11-05 06:42:00,57.0,55.0,-100.00,NE,42,1.0,4.0,93,0.00,,,0.00,,2013-11-05 12:42:00,
2013-11-05 07:11:00,56.0,55.0,-100.00,ENE,76,0.0,0.0,95,0.00,,,0.00,,2013-11-05 13:11:00,
2013-11-05 07:21:00,56.0,55.0,-100.00,ENE,76,0.0,0.0,95,0.00,,,0.00,,2013-11-05 13:21:00,
2013-11-05 07:32:00,56.0,55.0,-100.00,ENE,76,0.0,0.0,95,0.00,,,0.00,,2013-11-05 13:32:00,
2013-11-05 07:42:00,56.0,55.0,-100.00,ENE,76,0.0,0.0,95,0.00,,,0.00,,2013-11-05 13:42:00,
2013-11-05 08:12:00,62.0,60.0,-100.00,ESE,121,5.0,10.0,92,0.00,,,0.00,,2013-11-05 14:12:00,
2013-11-05 08:22:00,62.0,60.0,-100.00,ESE,121,5.0,10.0,92,0.00,,,0.00,,2013-11-05 14:22:00,
2013-11-05 08:32:00,62.0,60.0,-100.00,ESE,121,5.0,10.0,92,0.00,,,0.00,,2013-11-05 14:32:00,
2013-11-05 08:42:00,62.0,60.0,-100.00,ESE,121,5.0,10.0,92,0.00,,,0.00,,2013-11-05 14:42:00,
2013-11-05 09:11:00,67.0,60.0,-100.00,ESE,120,8.0,19.0,78,0.00,,,0.00,,2013-11-05 15:11:00,
2013-11-05 09:22:00,67.0,60.0,-100.00,ESE,120,8.0,19.0,78,0.00,,,0.00,,2013-11-05 15:22:00,
2013-11-05 09:33:00,67.0,60.0,-100.00,ESE,120,8.0,19.0,78,0.00,,,0.00,,2013-11-05 15:33:00,
2013-11-05 09:43:00,67.0,60.0,-100.00,ESE,120,8.0,19.0,78,0.00,,,0.00,,2013-11-05 15:43:00,
2013-11-05 10:13:00,71.0,62.0,-100.00,ESE,123,8.0,15.0,73,0.00,,,0.00,,2013-11-05 16:13:00,
2013-11-05 10:23:00,71.0,62.0,-100.00,ESE,123,8.0,15.0,73,0.00,,,0.00,,2013-11-05 16:23:00,
2013-11-05 10:32:00,71.0,62.0,-100.00,ESE,123,8.0,15.0,73,0.00,,,0.00,,2013-11-05 16:32:00,
2013-11-05 10:43:00,71.0,62.0,-100.00,ESE,123,8.0,15.0,73,0.00,,,0.00,,2013-11-05 16:43:00,
2013-11-05 11:22:00,75.0,63.0,-100.00,SE,140,7.0,13.0,66,0.00,,,0.00,,2013-11-05 17:22:00,
2013-11-05 11:32:00,75.0,63.0,-100.00,SE,140,7.0,13.0,66,0.00,,,0.00,,2013-11-05 17:32:00,
2013-11-05 11:42:00,75.0,63.0,-100.00,SE,140,7.0,13.0,66,0.00,,,0.00,,2013-11-05 17:42:00,
2013-11-05 12:12:00,75.0,63.0,-100.00,SE,141,6.0,14.0,66,0.00,,,0.00,,2013-11-05 18:12:00,
2013-11-05 12:22:00,75.0,63.0,-100.00,SE,141,6.0,14.0,66,0.00,,,0.00,,2013-11-05 18:22:00,
2013-11-05 12:33:00,75.0,63.0,-100.00,SE,141,6.0,14.0,66,0.00,,,0.00,,2013-11-05 18:33:00,
2013-11-05 12:42:00,75.0,63.0,-100.00,SE,141,6.0,14.0,66,0.00,,,0.00,,2013-11-05 18:42:00,
2013-11-05 13:22:00,75.0,64.0,-100.00,SE,133,6.0,14.0,69,0.00,,,0.00,,2013-11-05 19:22:00,
2013-11-05 13:32:00,75.0,64.0,-100.00,SE,133,6.0,14.0,69,0.00,,,0.00,,2013-11-05 19:32:00,
2013-11-05 13:42:00,75.0,64.0,-100.00,SE,133,6.0,14.0,69,0.00,,,0.00,,2013-11-05 19:42:00,
2013-11-05 14:22:00,75.0,64.0,-100.00,SE,137,6.0,11.0,69,0.00,,,0.00,,2013-11-05 20:22:00,
2013-11-05 14:32:00,75.0,64.0,-100.00,SE,137,6.0,11.0,69,0.00,,,0.00,,2013-11-05 20:32:00,
2013-11-05 14:42:00,75.0,64.0,-100.00,SE,137,6.0,11.0,69,0.00,,,0.00,,2013-11-05 20:42:00,
2013-11-05 15:22:00,75.0,63.0,-100.00,ESE,120,6.0,11.0,66,0.00,,,0.00,,2013-11-05 21:22:00,
2013-11-05 15:33:00,75.0,63.0,-100.00,ESE,120,6.0,11.0,66,0.00,,,0.00,,2013-11-05 21:33:00,
2013-11-05 15:44:00,75.0,63.0,-100.00,ESE,120,6.0,11.0,66,0.00,,,0.00,,2013-11-05 21:44:00,
2013-11-05 16:23:00,75.0,63.0,-100.00,SE,130,7.0,13.0,66,0.00,,,0.00,,2013-11-05 22:23:00,
2013-11-05 16:34:00,75.0,63.0,-100.00,SE,130,7.0,13.0,66,0.00,,,0.00,,2013-11-05 22:34:00,
2013-11-05 16:43:00,75.0,63.0,-100.00,SE,130,7.0,13.0,66,0.00,,,0.00,,2013-11-05 22:43:00,
2013-11-05 17:12:00,73.0,64.0,-100.00,ESE,123,4.0,9.0,73,0.00,,,0.00,,2013-11-05 23:12:00,
2013-11-05 17:22:00,73.0,64.0,-100.00,ESE,123,4.0,9.0,73,0.00,,,0.00,,2013-11-05 23:22:00,
2013-11-05 17:34:00,73.0,64.0,-100.00,ESE,123,4.0,9.0,73,0.00,,,0.00,,2013-11-05 23:34:00,
2013-11-05 17:42:00,73.0,64.0,-100.00,ESE,123,4.0,9.0,73,0.00,,,0.00,,2013-11-05 23:42:00,
2013-11-05 18:22:00,70.0,64.0,-100.00,ESE,116,2.0,4.0,81,0.00,,,0.00,,2013-11-06 00:22:00,
2013-11-05 18:32:00,70.0,64.0,-100.00,ESE,116,2.0,4.0,81,0.00,,,0.00,,2013-11-06 00:32:00,
2013-11-05 18:42:00,70.0,64.0,-100.00,ESE,116,2.0,4.0,81,0.00,,,0.00,,2013-11-06 00:42:00,
2013-11-05 19:11:00,69.0,64.0,-100.00,SE,126,3.0,5.0,83,0.00,,,0.00,,2013-11-06 01:11:00,
2013-11-05 19:22:00,69.0,64.0,-100.00,SE,126,3.0,5.0,83,0.00,,,0.00,,2013-11-06 01:22:00,
2013-11-05 19:32:00,69.0,64.0,-100.00,SE,126,3.0,5.0,83,0.00,,,0.00,,2013-11-06 01:32:00,
2013-11-05 19:42:00,69.0,64.0,-100.00,SE,126,3.0,5.0,83,0.00,,,0.00,,2013-11-06 01:42:00,
2013-11-05 20:12:00,68.0,63.0,-100.00,SE,128,4.0,8.0,83,0.00,,,0.00,,2013-11-06 02:12:00,
2013-11-05 20:23:00,68.0,63.0,-100.00,SE,128,4.0,8.0,83,0.00,,,0.00,,2013-11-06 02:23:00,
2013-11-05 20:32:00,68.0,63.0,-100.00,SE,128,4.0,8.0,83,0.00,,,0.00,,2013-11-06 02:32:00,
2013-11-05 20:42:00,68.0,63.0,-100.00,SE,128,4.0,8.0,83,0.00,,,0.00,,2013-11-06 02:42:00,
2013-11-05 21:12:00,66.0,62.0,-100.00,ESE,120,3.0,5.0,87,0.00,,,0.00,,2013-11-06 03:12:00,
2013-11-05 21:22:00,66.0,62.0,-100.00,ESE,120,3.0,5.0,87,0.00,,,0.00,,2013-11-06 03:22:00,
2013-11-05 21:34:00,66.0,62.0,-100.00,ESE,120,3.0,5.0,87,0.00,,,0.00,,2013-11-06 03:34:00,
2013-11-05 21:44:00,66.0,62.0,-100.00,ESE,120,3.0,5.0,87,0.00,,,0.00,,2013-11-06 03:44:00,
2013-11-05 22:14:00,66.0,62.0,-100.00,SE,134,5.0,9.0,88,0.00,,,0.00,,2013-11-06 04:14:00,
2013-11-05 22:24:00,66.0,62.0,-100.00,SE,134,5.0,9.0,88,0.00,,,0.00,,2013-11-06 04:24:00,
2013-11-05 22:34:00,66.0,62.0,-100.00,SE,134,5.0,9.0,88,0.00,,,0.00,,2013-11-06 04:34:00,
2013-11-05 22:43:00,66.0,62.0,-100.00,SE,134,5.0,9.0,88,0.00,,,0.00,,2013-11-06 04:43:00,
2013-11-05 23:13:00,65.0,62.0,-100.00,SE,132,4.0,7.0,91,0.00,,,0.00,,2013-11-06 05:13:00,
2013-11-05 23:23:00,65.0,62.0,-100.00,SE,132,4.0,7.0,91,0.00,,,0.00,,2013-11-06 05:23:00,
2013-11-05 23:34:00,65.0,62.0,-100.00,SE,132,4.0,7.0,91,0.00,,,0.00,,2013-11-06 05:34:00,
2013-11-05 23:44:00,65.0,62.0,-100.00,SE,132,4.0,7.0,91,0.00,,,0.00,,2013-11-06 05:44:00,